Location: Ahausen
(50.4985°N, 8.2722°E)
Time: 06:46:20
(UTC+00:00)

Cosmos 2098 Rocket - Pass Details

Date: 18 September 2020
Orbit: 366 x 1185 km, 82.9° (Epoch: 21 October)

Event Time Altitude Azimuth Distance (km) Brightness Sun altitude
Rises 20:51:42 0° 349° (N) 4,078 8.1 -29.1°
Reaches altitude 10° 20:54:30 10° 349° (N) 3,076 7.3 -29.4°
Maximum altitude 21:01:49 86° 262° (W) 1,070 4.1 -30.2°
Enters shadow 21:02:07 82° 205° (SSW) 1,070 4.0 -30.3°
